Wind_Speed
14 15 16 16 17 17 16 16 15 15 14 12 10 9 8 8 7 5 4 3 3 3 3 4 4 4 4 5 5 5 5 5 5 6 6 6 6 7 7 7 7 7 7
13 14 15 16 16 16 16 15 15 15 14 13 11 9 8 7 6 5 4 3 3 3 3 4 5 5 6 5 6 6 6 6 6 7 7 7 7 8 8 8 8 8 8
13 14 15 15 15 15 15 15 16 15 15 13 12 10 8 7 5 5 4 4 3 3 3 4 5 6 6 6 6 7 7 7 8 8 8 8 9 9 10 10 10 10 10
13 14 14 15 15 15 15 15 15 15 14 13 12 10 8 7 5 5 4 4 4 4 4 4 6 7 7 6 7 7 8 9 9 9 10 10 10 10 11 11 11 11 12
12 13 14 15 15 15 15 15 15 15 14 13 11 9 9 8 6 5 5 5 5 5 6 6 7 8 8 8 7 7 8 9 10 10 11 11 11 11 11 11 12 13 13
12 13 14 15 15 15 16 16 15 15 14 13 11 9 9 8 6 6 7 6 6 6 7 7 7 7 8 8 8 9 10 11 11 11 11 12 12 12 12 13 13 14 15
12 13 14 14 15 16 16 15 15 15 14 13 12 10 9 9 8 8 8 8 8 7 7 7 7 8 8 8 9 10 10 11 11 12 12 13 13 13 14 14 15 16 16
12 12 14 14 14 15 16 15 15 15 15 13 12 11 10 10 10 9 9 9 8 8 8 8 9 9 9 9 10 11 11 12 12 13 13 14 15 15 15 16 16 16 17
12 12 13 14 14 15 16 16 15 15 14 14 13 12 11 11 10 9 9 9 9 8 8 9 10 10 10 10 11 12 12 12 13 14 15 15 16 16 17 17 17 18 17
13 13 14 14 15 17 17 16 15 15 15 14 13 12 12 12 11 10 10 10 10 9 9 10 11 11 11 12 12 13 14 14 15 15 16 16 17 17 18 18 18 19 19
14 14 14 16 16 16 16 15 15 16 15 14 14 13 13 13 12 12 11 11 10 11 11 12 12 13 13 13 13 14 15 15 15 16 17 17 18 19 19 19 19 20 20
14 15 15 17 16 16 15 15 16 16 16 15 14 14 13 14 13 12 13 13 13 13 13 13 13 13 14 14 15 15 15 16 17 17 18 18 19 19 19 20 20 21 21
14 15 16 17 16 15 16 16 16 16 15 15 14 14 14 14 13 13 14 14 14 15 15 14 14 14 15 15 15 16 16 17 17 18 19 19 19 20 20 20 21 21 22
15 15 16 16 16 16 16 17 17 16 16 16 15 15 15 14 14 14 15 15 15 15 16 15 15 15 16 16 16 16 17 17 18 18 19 19 19 20 20 20 21 21 21
16 16 16 17 16 16 17 17 18 17 16 16 16 15 15 16 16 15 16 16 17 16 16 15 15 16 16 17 17 17 17 18 18 19 20 21 21 21 21 21 21 22 22
18 18 17 17 17 17 17 18 18 18 17 17 17 17 17 17 17 17 17 17 17 17 17 17 18 18 18 19 19 19 19 19 19 20 20 21 21 21 21 21 22 22 23
21 20 19 18 18 18 18 19 19 19 19 19 19 19 19 19 19 19 19 19 19 20 20 20 20 20 20 21 21 21 21 21 21 21 21 22 22 22 22 22 22 23 24
24 22 21 20 20 20 20 21 20 20 21 21 21 21 21 21 21 21 22 22 22 22 22 22 22 21 21 21 22 22 22 22 22 22 23 23 23 23 23 24 24 25 25
26 25 24 23 22 22 22 22 22 22 22 22 22 22 23 23 23 23 24 24 24 24 23 22 23 22 22 22 22 22 22 23 23 24 24 24 24 24 25 26 26 27 28
27 26 26 25 24 24 24 24 24 23 23 23 23 24 24 24 25 24 24 23 24 23 23 22 23 23 23 23 24 24 24 24 24 24 24 25 26 26 26 26 26 27 28
28 27 28 28 27 27 27 26 25 25 25 25 25 25 25 25 25 24 24 23 23 23 23 23 24 24 24 24 25 25 24 24 24 24 25 25 26 27 27 27 28 29 29
30 30 29 29 29 29 29 28 28 27 27 27 26 27 26 26 25 26 25 24 24 24 25 25 25 25 25 25 25 26 26 26 26 26 26 27 27 28 28 29 30 30 31
32 32 32 31 31 31 31 31 31 30 29 28 28 28 28 27 27 26 26 26 26 26 26 26 26 26 26 26 27 27 27 27 27 27 28 29 30 30 30 31 32 32 32
34 34 34 34 33 33 32 32 32 32 32 31 31 30 30 29 29 28 28 28 28 28 27 27 27 27 27 28 28 28 28 29 29 29 30 31 31 31 32 32 33 33 34
35 34 35 35 34 35 34 33 32 32 32 32 32 33 32 31 30 30 31 30 29 28 29 29 29 29 29 30 30 30 31 31 32 32 31 32 32 33 33 34 34 34 35
35 34 34 34 34 34 35 35 35 35 34 34 34 34 33 32 32 32 32 32 31 30 30 31 31 32 32 32 33 33 32 33 33 33 33 34 34 34 35 35 35 36 36
Wind_Direction
9 10 11 11 9 7 6 4 4 2 3 2 357 353 352 356 353 351 345 333 319 291 261 248 242 247 255 257 256 252 250 256 265 271 269 270 271 275 280 281 284 288 284
3 6 6 5 4 4 3 1 0 357 355 354 352 345 341 347 356 357 348 333 316 305 282 263 266 267 264 260 257 254 252 257 268 275 271 269 275 276 279 281 286 286 283
356 358 0 -0 359 1 0 358 356 354 351 349 346 343 344 341 347 353 354 342 324 309 290 266 272 276 279 267 262 258 257 265 275 276 273 270 277 282 280 280 284 285 285
350 351 353 355 355 357 357 355 354 352 349 347 346 339 336 337 338 334 337 331 323 310 295 281 276 274 277 271 264 261 266 271 275 277 279 280 285 284 282 282 284 286 287
343 345 347 350 351 352 352 352 351 351 350 348 345 337 331 331 334 335 328 318 305 300 297 294 287 280 280 274 271 272 275 277 279 279 280 283 286 286 286 286 288 289 288
333 338 342 344 346 346 346 346 346 346 345 344 341 337 331 327 328 331 330 324 309 299 294 294 292 289 289 279 275 278 279 280 282 281 281 283 285 287 288 290 290 289 289
322 330 335 339 341 343 342 341 341 341 341 343 341 336 332 330 330 327 327 326 319 310 303 298 296 295 293 284 279 282 285 284 286 285 284 285 285 286 287 288 288 289 289
316 327 333 336 337 339 342 342 340 340 341 342 338 335 332 328 327 323 323 321 317 312 306 304 298 295 295 292 287 284 285 287 287 287 287 288 287 286 286 287 287 288 289
313 323 329 333 337 338 339 340 341 341 339 338 335 332 330 328 326 322 316 312 310 305 302 302 297 295 293 293 291 289 286 287 287 287 287 288 289 288 287 287 287 288 290
307 316 323 328 332 335 334 335 338 338 337 334 330 328 327 324 322 321 316 310 306 304 301 303 301 298 295 294 292 291 290 288 289 289 289 289 290 291 290 289 289 289 290
304 310 316 322 327 330 330 331 334 335 334 332 331 329 327 323 318 318 317 312 307 304 300 302 300 297 297 297 295 292 289 289 291 292 291 291 291 291 291 290 290 291 290
298 306 313 318 322 327 328 329 333 332 332 331 329 328 326 326 322 319 317 315 312 308 304 299 301 299 299 298 295 293 292 290 291 292 293 293 293 292 293 292 291 290 291
290 298 306 312 316 323 327 329 330 331 332 330 325 323 323 325 324 319 317 316 314 311 308 306 305 303 302 301 297 294 292 291 292 294 295 294 293 292 292 292 291 290 290
282 291 299 305 311 317 320 325 327 328 328 325 323 319 319 320 321 319 319 316 313 314 313 313 310 306 303 302 300 296 293 291 292 295 295 295 293 293 292 292 292 292 292
281 287 292 298 302 307 310 315 319 320 322 321 320 319 314 313 316 315 314 314 313 315 315 314 312 308 304 303 302 300 298 296 296 296 296 294 292 293 293 293 293 294 293
281 285 287 292 298 302 305 308 310 314 315 317 317 317 314 312 311 310 309 309 311 312 311 311 309 306 304 302 300 299 299 299 298 298 297 296 294 294 294 295 296 296 295
278 281 285 289 292 296 298 301 303 306 308 310 310 310 309 310 309 307 307 307 307 308 308 308 308 306 303 302 299 297 297 296 296 296 295 295 294 294 295 296 297 297 296
275 277 282 284 287 289 292 295 297 302 305 305 305 306 306 306 306 305 306 305 304 304 304 305 305 303 302 301 298 296 296 297 296 295 295 294 293 294 294 294 294 295 295
270 274 276 278 281 284 286 289 293 297 300 301 301 303 303 303 302 303 304 304 303 303 302 301 302 302 302 302 300 298 296 297 296 295 295 295 294 294 294 293 293 293 294
267 270 272 274 278 280 282 284 288 292 295 298 299 301 303 302 302 301 302 303 302 303 302 300 300 300 299 300 301 300 298 298 298 297 296 294 293 293 293 294 295 295 295
265 267 269 271 274 277 279 281 285 289 293 295 296 299 302 303 302 301 300 300 301 303 301 300 300 299 298 298 299 299 299 298 298 297 296 295 295 295 296 296 295 296 296
263 265 268 270 271 273 276 279 282 284 287 290 292 294 296 298 300 300 299 300 301 301 301 300 300 299 299 298 299 300 300 299 298 298 297 296 296 297 297 296 297 298 299
261 264 266 268 270 270 272 275 277 279 282 285 287 290 292 294 298 300 299 300 301 300 299 300 301 302 302 301 301 301 302 301 300 300 299 299 299 298 297 297 298 298 299
261 263 265 267 268 268 269 271 273 276 278 282 284 286 288 292 296 297 296 297 298 298 298 299 299 300 301 302 302 301 300 300 301 299 300 301 301 301 299 298 298 298 299
261 262 264 266 267 267 268 269 273 275 277 279 281 284 286 288 293 295 295 295 296 297 297 297 298 298 299 299 300 300 300 300 300 300 300 300 300 300 300 299 298 298 299
262 263 264 266 267 268 268 269 272 275 277 279 281 283 286 287 289 292 293 294 294 294 295 296 296 297 297 297 297 298 298 299 299 299 299 300 299 299 299 299 299 299 299
Height
5925 5923 5921 5919 5917 5915 5913 5911 5909 5907 5905 5903 5902 5901 5900 5899 5899 5898 5898 5898 5898 5898 5899 5900 5900 5900 5900 5901 5901 5902 5902 5902 5903 5903 5903 5903 5903 5903 5903 5903 5903 5903 5903
5925 5924 5922 5920 5918 5916 5914 5912 5909 5907 5905 5903 5902 5901 5900 5899 5899 5898 5898 5898 5898 5898 5898 5899 5899 5899 5899 5899 5900 5900 5901 5901 5901 5901 5901 5901 5902 5901 5902 5901 5901 5901 5901
5926 5924 5922 5920 5918 5916 5914 5912 5910 5908 5905 5904 5902 5900 5899 5899 5899 5898 5898 5897 5897 5898 5898 5898 5899 5898 5898 5898 5898 5899 5899 5900 5900 5900 5900 5900 5900 5900 5900 5899 5899 5899 5899
5926 5924 5922 5920 5918 5916 5914 5912 5910 5908 5905 5904 5902 5900 5899 5899 5898 5898 5897 5897 5897 5897 5897 5897 5898 5897 5897 5897 5897 5897 5898 5898 5898 5898 5898 5898 5897 5897 5897 5897 5897 5896 5896
5926 5924 5922 5920 5918 5916 5914 5912 5910 5908 5905 5903 5901 5900 5899 5898 5898 5897 5897 5896 5896 5896 5896 5896 5896 5896 5896 5895 5895 5895 5896 5896 5896 5896 5895 5895 5895 5895 5894 5894 5894 5893 5893
5926 5924 5921 5919 5918 5915 5913 5911 5909 5907 5905 5903 5901 5900 5899 5898 5897 5897 5896 5895 5895 5895 5895 5895 5895 5894 5894 5894 5894 5894 5894 5894 5894 5893 5893 5893 5892 5892 5892 5892 5891 5890 5889
5924 5923 5921 5919 5917 5915 5913 5910 5908 5906 5904 5903 5901 5899 5898 5897 5897 5896 5895 5894 5894 5894 5893 5893 5893 5893 5892 5892 5892 5892 5891 5891 5891 5891 5890 5890 5889 5889 5889 5888 5887 5887 5886
5923 5921 5919 5918 5916 5914 5911 5910 5908 5905 5903 5902 5900 5899 5898 5897 5896 5895 5894 5893 5892 5892 5892 5892 5891 5891 5890 5889 5889 5889 5889 5889 5888 5888 5887 5887 5886 5885 5885 5885 5884 5883 5882
5921 5919 5918 5916 5914 5912 5910 5908 5906 5904 5903 5901 5899 5898 5897 5896 5895 5894 5893 5892 5891 5890 5890 5890 5889 5888 5888 5887 5887 5886 5886 5886 5885 5884 5884 5883 5882 5882 5881 5880 5880 5879 5878
5918 5917 5916 5914 5913 5911 5908 5906 5905 5903 5901 5899 5898 5897 5896 5894 5893 5892 5891 5890 5889 5889 5888 5887 5887 5886 5885 5884 5884 5883 5883 5882 5882 5881 5880 5879 5878 5877 5877 5876 5875 5874 5874
5916 5914 5913 5912 5911 5908 5906 5905 5903 5901 5899 5898 5896 5895 5894 5893 5891 5890 5889 5888 5888 5887 5886 5885 5884 5883 5882 5881 5880 5880 5879 5879 5878 5877 5876 5875 5874 5873 5872 5871 5870 5869 5868
5914 5912 5911 5910 5909 5906 5904 5903 5901 5899 5897 5896 5894 5893 5892 5891 5890 5889 5888 5886 5885 5884 5883 5882 5881 5880 5879 5878 5877 5876 5876 5875 5874 5873 5872 5871 5870 5869 5868 5866 5865 5864 5863
5911 5911 5910 5908 5906 5904 5903 5901 5900 5898 5896 5894 5893 5891 5890 5889 5888 5886 5885 5884 5883 5881 5880 5878 5878 5876 5875 5874 5873 5872 5872 5871 5870 5869 5868 5866 5865 5864 5863 5861 5860 5859 5858
5908 5908 5907 5906 5904 5903 5901 5900 5898 5896 5894 5893 5891 5890 5889 5887 5886 5885 5883 5882 5881 5879 5877 5876 5875 5873 5872 5871 5870 5868 5867 5866 5865 5864 5863 5862 5860 5859 5858 5857 5855 5854 5852
5905 5904 5904 5904 5902 5901 5899 5898 5896 5895 5892 5891 5889 5888 5887 5885 5884 5882 5881 5880 5878 5876 5875 5873 5871 5870 5869 5867 5866 5864 5863 5862 5861 5859 5858 5857 5855 5854 5853 5851 5850 5848 5847
5901 5901 5901 5901 5900 5898 5897 5895 5894 5892 5890 5888 5887 5886 5884 5883 5881 5880 5878 5877 5875 5873 5871 5870 5868 5866 5865 5863 5862 5860 5859 5857 5856 5854 5853 5852 5850 5849 5847 5846 5844 5843 5841
5897 5898 5898 5897 5896 5895 5894 5893 5891 5890 5888 5887 5885 5883 5882 5880 5878 5876 5875 5873 5871 5869 5868 5866 5864 5862 5860 5859 5857 5855 5854 5852 5851 5849 5848 5846 5845 5843 5842 5840 5839 5837 5835
5893 5892 5893 5893 5892 5891 5890 5889 5887 5886 5885 5884 5882 5880 5878 5876 5874 5872 5871 5869 5867 5865 5863 5861 5859 5857 5856 5854 5852 5850 5849 5847 5845 5843 5842 5840 5839 5837 5836 5834 5833 5831 5829
5887 5888 5888 5887 5887 5887 5886 5885 5884 5883 5881 5880 5878 5876 5874 5872 5870 5868 5866 5863 5861 5860 5858 5856 5854 5853 5851 5849 5847 5845 5843 5841 5840 5838 5836 5834 5832 5831 5829 5828 5826 5824 5822
5882 5882 5882 5881 5881 5882 5881 5880 5879 5878 5877 5875 5873 5871 5869 5867 5865 5863 5860 5858 5856 5854 5852 5850 5849 5847 5845 5844 5841 5839 5838 5836 5834 5832 5830 5828 5826 5824 5823 5821 5819 5817 5815
5875 5875 5875 5876 5876 5876 5875 5875 5874 5873 5872 5870 5868 5866 5864 5862 5859 5857 5855 5853 5851 5849 5847 5845 5843 5841 5840 5838 5836 5834 5832 5830 5828 5826 5824 5822 5819 5817 5816 5814 5812 5810 5807
5868 5868 5869 5869 5869 5869 5868 5868 5868 5867 5866 5864 5862 5860 5859 5857 5854 5852 5849 5847 5845 5843 5841 5839 5837 5835 5834 5832 5830 5827 5825 5823 5822 5819 5817 5815 5813 5811 5809 5807 5804 5802 5799
5860 5861 5861 5861 5861 5861 5861 5861 5861 5860 5859 5857 5856 5854 5852 5850 5848 5846 5844 5841 5839 5837 5835 5833 5831 5829 5828 5826 5823 5821 5819 5817 5815 5813 5810 5808 5805 5803 5801 5799 5796 5794 5791
5852 5853 5853 5853 5853 5853 5853 5852 5852 5851 5851 5850 5848 5847 5845 5843 5841 5839 5837 5835 5833 5830 5829 5827 5825 5823 5822 5819 5817 5815 5812 5810 5808 5805 5803 5800 5798 5795 5793 5790 5787 5785 5782
5843 5844 5844 5844 5844 5844 5844 5844 5843 5842 5842 5841 5841 5839 5837 5836 5835 5833 5830 5828 5826 5824 5822 5821 5819 5817 5815 5812 5810 5807 5805 5803 5800 5797 5795 5793 5790 5787 5784 5781 5778 5775 5772
5834 5835 5835 5836 5836 5836 5835 5835 5835 5834 5833 5833 5832 5831 5830 5828 5827 5825 5823 5821 5819 5817 5815 5813 5811 5809 5807 5804 5802 5799 5797 5794 5792 5789 5787 5784 5781 5778 5775 5772 5769 5766 5763